Greybull, WY

9:57 AM MDT on July 24, 2017 (GMT -0600)
South Big Horn County

Weather History for KGEY - March, 2012

Change the Weather History Date:

Saturday, March 31, 2012

  Actual Average Record
Temperature  
Mean Temperature 61 °F 42 °F  
Max Temperature 81 °F 56 °F 81 °F (2012)
Min Temperature 42 °F 28 °F 19 °F (2009)
Degree Days  
Heating Degree Days 4 23  
Month to date heating degree days 871  
Since 1 July heating degree days 6842  
Cooling Degree Days 0 0  
Month to date cooling degree days 0  
Year to date cooling degree days 0  
Growing Degree Days 11 (Base 50)    
Moisture  
Dew Point 29 °F    
Average Humidity 32    
Maximum Humidity 62    
Minimum Humidity 12    
Precipitation  
Precipitation 0.00 in 0.02 in 0.03 in (2011)
Month to date precipitation 0.40  
Year to date precipitation 0.81  
Sea Level Pressure  
Sea Level Pressure 29.53 in    
Wind  
Wind Speed 9 mph (South)    
Max Wind Speed 23 mph    
Max Gust Speed 32 mph    
Visibility 10 miles    
Events      
T = Trace of Precipitation, MM = Missing Value Source: NWS Daily Summary

Daily Weather History Graph

Daily Weather History Graph

Search for Another Location

Airport or City:

Trip Planner

Search our weather history database for the weather conditions in past years. The results will help you decide how hot, cold, wet, or windy it might be!

Date:

Astronomy

Mar. 31, 2012 Rise Set
Actual Time 6:54 AM MDT 7:39 PM MDT
Civil Twilight 6:24 AM MDT 8:08 PM MDT
Nautical Twilight 5:49 AM MDT 8:43 PM MDT
Astronomical Twilight 5:13 AM MDT 9:20 PM MDT
Moon 12:55 PM MDT (3/31) 3:07 AM MDT (3/31)
Length of Visible Light 13h 43m
Length of Day
12h 45m
First Quarter, 59% of the Moon is Illuminated
Mar 31
First Quarter
Apr 6
Full
Apr 13
Last Quarter
Apr 21
New
Apr 29
First Quarter

Hourly Weather History & Observations

Time (MDT) Temp. Windchill Dew Point Humidity Pressure Visibility Wind Dir Wind Speed Gust Speed Precip Events Conditions
12:53 AM 60.1 °F - 32.0 °F 35% 29.68 in 10.0 mi NW 9.2 mph - N/A   Clear
1:53 AM 55.0 °F - 32.0 °F 42% 29.70 in 10.0 mi SSE 6.9 mph - N/A   Clear
2:53 AM 51.1 °F - 30.9 °F 46% 29.70 in 10.0 mi SSE 3.5 mph - N/A   Clear
3:53 AM 51.1 °F - 30.0 °F 44% 29.70 in 10.0 mi ESE 4.6 mph - N/A   Clear
4:53 AM 46.0 °F 43.9 °F 28.9 °F 51% 29.73 in 10.0 mi WNW 4.6 mph - N/A   Clear
5:53 AM 46.0 °F - 30.0 °F 54% 29.72 in 10.0 mi Calm Calm - N/A   Clear
6:53 AM 42.1 °F 40.2 °F 30.0 °F 62% 29.73 in 10.0 mi NE 3.5 mph - N/A   Clear
7:53 AM 45.0 °F 42.6 °F 30.0 °F 56% 29.73 in 10.0 mi WNW 4.6 mph - N/A   Clear
8:53 AM 55.0 °F - 33.1 °F 43% 29.70 in 10.0 mi SSE 6.9 mph - N/A   Clear
9:53 AM 61.0 °F - 34.0 °F 36% 29.66 in 10.0 mi SSE 10.4 mph - N/A   Mostly Cloudy
10:53 AM 66.9 °F - 34.0 °F 30% 29.61 in 10.0 mi SSE 17.3 mph 23.0 mph N/A   Scattered Clouds
11:53 AM 71.1 °F - 33.1 °F 25% 29.56 in 10.0 mi SSE 23.0 mph 32.2 mph N/A   Mostly Cloudy
12:53 PM 75.0 °F - 33.1 °F 22% 29.50 in 10.0 mi SSE 17.3 mph 29.9 mph N/A   Clear
1:53 PM 78.1 °F - 32.0 °F 19% 29.46 in 10.0 mi SSE 20.7 mph 28.8 mph N/A   Scattered Clouds
2:53 PM 80.1 °F - 30.0 °F 16% 29.42 in 10.0 mi South 20.7 mph 29.9 mph N/A   Mostly Cloudy
3:53 PM 80.1 °F - 28.9 °F 15% 29.38 in 10.0 mi South 16.1 mph 28.8 mph N/A   Partly Cloudy
4:53 PM 80.1 °F - 26.1 °F 14% 29.36 in 10.0 mi South 19.6 mph 27.6 mph N/A   Clear
5:53 PM 80.1 °F - 23.0 °F 12% 29.34 in 10.0 mi South 12.7 mph - N/A   Clear
6:53 PM 78.1 °F - 21.0 °F 12% 29.34 in 10.0 mi South 12.7 mph - N/A   Clear
7:53 PM 70.0 °F - 21.0 °F 16% 29.36 in 10.0 mi WSW 9.2 mph - N/A   Clear
8:53 PM 68.0 °F - 24.1 °F 19% 29.35 in 10.0 mi NW 4.6 mph - N/A   Clear
9:53 PM 57.9 °F - 26.1 °F 30% 29.35 in 10.0 mi SW 4.6 mph - N/A   Clear
10:53 PM 54.0 °F - 25.0 °F 33% 29.35 in 10.0 mi WNW 5.8 mph - N/A   Clear
11:53 PM 48.9 °F - 27.0 °F 43% 29.34 in 10.0 mi SSE 4.6 mph - N/A   Clear